Wind_Speed
14 15 14 13 15 12 8 6 4 4 3 2 2 2 1 2 1 1 2 2 3 3 4 3 3 2 3 4 5 5 5 5 6 6 7 7 9 9 8 9 9 10 10 11 12 12 11 11 11
15 14 14 16 13 9 7 6 5 4 3 3 2 2 1 1 0 1 2 2 3 4 5 5 5 5 6 6 6 6 6 6 7 7 8 9 10 10 10 10 10 10 10 11 12 11 10 10 9
15 14 16 15 11 9 9 8 6 6 5 4 3 3 2 2 1 1 1 2 3 5 6 7 7 7 7 6 6 6 7 7 7 8 8 8 10 10 12 10 11 10 10 11 11 10 9 9 9
14 16 17 13 11 10 10 9 8 7 6 5 4 4 3 3 2 2 2 2 3 5 6 7 8 8 8 7 7 7 7 7 7 7 8 8 9 10 11 11 11 11 11 11 9 9 9 9 8
17 17 14 11 11 10 9 9 8 7 7 6 5 5 4 3 3 3 3 3 4 5 6 7 7 8 8 8 8 7 7 7 7 7 8 8 8 9 10 10 10 11 10 9 9 8 9 8 8
18 16 13 11 11 10 9 9 9 8 8 7 7 6 5 4 4 4 4 4 4 4 6 8 7 8 8 7 7 7 7 7 8 8 7 7 8 9 10 10 10 10 9 8 8 8 8 7 6
17 16 12 10 10 9 10 10 9 9 9 9 8 8 7 5 4 5 4 4 4 5 6 8 8 8 7 7 7 7 8 8 8 8 8 8 8 9 10 10 10 9 9 8 8 7 6 6 6
15 14 10 10 10 10 10 10 9 9 9 9 9 9 8 8 7 6 5 6 5 6 6 6 7 7 7 6 7 8 7 7 7 8 8 8 8 8 9 9 9 9 9 8 7 6 6 5 5
12 12 9 9 9 10 9 9 9 9 9 10 10 9 9 9 8 7 7 7 6 6 6 6 7 8 7 7 7 7 7 7 7 7 8 9 9 9 8 8 8 8 8 7 5 6 5 4 4
10 9 8 8 8 8 9 9 9 9 10 10 10 10 9 8 8 7 7 7 7 7 7 8 7 7 7 7 8 8 7 7 7 7 8 8 8 8 8 7 7 7 7 6 5 5 4 3 3
6 6 7 8 7 8 8 9 9 8 9 10 10 9 9 8 9 8 8 7 7 7 8 7 7 7 7 7 7 7 7 7 7 7 7 7 7 7 7 6 6 6 5 4 4 4 3 3 2
5 6 7 7 7 8 9 9 8 8 9 9 9 9 9 9 9 9 8 7 7 7 7 7 6 6 7 7 6 7 6 6 7 7 6 6 6 6 6 6 6 5 4 3 3 3 2 2 2
5 6 7 7 7 8 9 8 9 9 9 9 8 8 8 10 10 10 9 8 7 7 6 6 7 7 7 6 6 6 6 6 6 5 5 5 5 5 5 5 5 4 3 3 2 2 2 2 3
3 3 6 7 7 8 9 8 8 9 9 8 8 8 8 9 9 9 9 8 7 7 6 6 7 7 6 5 5 5 5 5 5 4 5 4 4 5 5 4 4 4 3 3 2 2 2 2 3
2 2 4 6 7 6 7 8 9 9 8 8 9 9 9 8 8 8 8 8 7 7 6 6 5 5 5 4 4 5 5 5 5 4 4 4 4 5 5 5 3 3 3 3 2 2 2 3 3
0 2 2 3 6 6 6 7 8 8 9 9 9 9 9 8 8 8 8 7 7 7 7 6 5 4 4 3 3 4 4 5 4 4 4 3 3 3 4 3 3 3 3 3 3 3 4 4 3
2 2 2 2 3 6 6 6 7 8 8 8 9 9 9 9 8 7 7 6 6 6 6 6 5 4 3 3 3 3 3 3 3 3 3 3 3 3 2 2 2 2 3 3 3 3 4 4 5
3 3 3 3 2 4 6 5 6 7 7 7 8 8 9 9 8 7 7 6 5 5 5 5 4 3 3 3 3 3 2 2 2 3 3 4 3 2 2 2 2 2 2 3 3 3 4 5 5
4 5 4 4 3 3 5 6 6 7 7 6 7 8 8 8 8 7 7 6 5 5 5 4 4 3 2 3 3 3 3 2 2 2 3 3 3 2 3 2 2 2 2 3 3 3 4 5 6
7 7 6 4 4 4 5 6 5 7 8 7 7 8 8 7 7 7 7 6 5 5 5 5 4 3 3 3 3 2 2 2 2 2 2 3 3 3 3 2 2 2 2 3 3 4 5 5 6
9 8 9 8 7 6 6 6 6 6 7 7 7 7 7 7 6 6 6 6 5 5 5 5 5 3 3 3 2 2 2 2 2 3 3 3 3 4 3 2 2 2 3 3 4 5 6 6 7
11 11 11 10 9 9 8 8 8 7 7 8 7 7 6 6 6 5 5 5 5 5 5 5 4 4 3 2 2 2 2 2 3 3 3 3 4 4 3 3 2 2 3 4 4 5 6 7 8
13 12 12 11 10 11 8 9 9 7 8 8 7 8 6 6 6 6 5 5 5 5 5 5 4 4 3 3 3 3 3 3 4 4 3 3 3 3 3 3 2 2 3 5 6 6 7 8 9
14 13 13 13 12 13 9 10 12 10 10 9 7 7 7 7 6 6 5 5 5 5 5 5 5 4 3 3 4 4 5 5 5 5 4 3 3 3 3 3 4 3 4 5 7 7 8 9 10
15 14 13 13 12 11 9 10 12 11 11 11 10 9 8 8 7 7 6 5 6 6 5 5 5 5 4 4 4 5 6 7 7 6 5 4 4 4 4 5 5 6 6 7 8 9 9 10 11
17 16 15 14 12 11 10 10 11 13 13 12 12 11 10 9 9 8 7 6 6 6 6 5 6 6 5 5 5 6 6 7 7 7 6 6 6 6 6 6 7 7 7 9 10 10 11 11 12
19 18 16 15 14 15 13 12 12 13 13 13 12 12 12 10 10 10 9 8 7 7 7 7 7 7 7 7 7 7 7 8 8 8 7 7 7 7 7 8 8 8 9 10 11 11 13 13 14
20 18 18 19 18 17 15 13 13 13 14 14 13 14 14 13 12 12 11 11 10 9 9 8 8 8 8 8 8 8 9 8 8 8 8 8 8 8 8 9 10 10 11 11 12 13 14 15 15
22 21 21 21 21 18 17 16 15 13 14 14 15 15 15 14 14 14 13 13 12 12 11 11 10 10 10 10 10 10 10 10 10 10 10 10 10 9 10 10 11 12 12 13 14 15 15 16 17
23 23 22 23 23 21 21 19 15 14 15 15 16 16 17 16 16 16 15 15 14 14 13 13 13 12 12 12 12 12 12 12 11 11 12 12 12 12 13 13 13 14 14 15 16 17 17 17 17
Wind_Direction
75 74 72 68 55 46 42 39 30 34 23 7 314 289 289 298 312 354 15 7 10 27 39 52 61 95 119 115 109 102 98 104 105 111 120 121 123 127 124 121 125 125 124 126 124 123 121 120 116
73 76 72 60 51 37 30 36 25 28 25 9 350 348 349 330 330 32 30 34 36 47 62 74 78 95 112 111 109 97 93 100 100 104 111 116 122 126 120 118 122 124 125 122 117 119 120 119 115
77 72 66 56 45 31 27 31 29 29 26 19 14 10 27 29 41 57 53 51 54 65 76 84 90 97 103 101 99 100 96 98 100 100 109 109 114 119 115 116 120 123 126 124 118 117 115 112 109
79 69 64 51 37 30 28 29 30 31 28 24 28 23 24 39 43 60 75 63 63 77 81 83 93 100 100 99 103 104 100 99 98 101 110 111 114 117 117 118 119 123 123 125 120 115 114 110 106
75 63 59 38 25 27 26 27 31 37 33 34 42 34 30 43 56 66 78 80 77 86 90 89 97 106 108 106 103 104 103 100 96 100 108 111 119 117 123 127 122 122 119 118 117 118 119 113 109
69 66 51 29 22 20 19 31 34 38 40 42 42 36 33 48 63 73 76 81 85 82 96 97 100 111 115 110 99 98 104 101 98 99 100 101 108 116 115 122 125 121 120 117 115 117 117 115 114
69 66 53 23 17 18 20 33 37 41 44 42 44 45 42 56 65 73 78 81 89 92 95 103 100 110 117 111 105 103 103 102 98 102 102 104 109 117 117 117 124 119 119 118 117 117 120 113 111
72 65 47 19 14 19 24 33 38 42 43 43 44 49 48 62 67 73 81 80 85 94 95 105 101 104 110 108 108 108 105 102 103 110 106 104 104 114 119 117 117 118 121 122 119 114 116 111 105
61 63 40 18 14 18 26 34 38 42 40 40 40 50 55 59 64 66 73 77 82 89 93 105 105 104 105 109 108 110 106 101 101 106 111 106 108 113 119 123 116 116 115 119 117 112 111 107 93
52 45 31 26 20 24 27 32 37 41 38 38 41 49 54 58 62 62 66 78 82 85 94 103 103 98 100 101 103 106 103 100 102 108 112 114 115 115 121 117 116 117 114 114 114 112 113 103 90
50 33 36 36 31 35 34 35 39 39 40 38 41 47 48 53 56 58 63 78 81 83 87 92 95 93 99 99 102 103 105 103 102 105 111 113 113 115 115 107 109 112 113 113 116 115 123 117 100
56 40 43 38 40 42 37 35 34 33 36 37 42 45 46 49 54 60 61 66 77 90 89 87 94 101 102 100 101 101 100 99 103 102 101 104 111 114 116 110 107 104 111 120 115 113 106 86 65
64 43 38 45 42 42 42 36 30 25 26 29 39 41 45 49 52 57 62 62 71 80 89 93 98 99 100 100 100 103 100 101 100 98 98 98 104 111 113 112 109 98 94 99 89 73 66 56 38
99 57 39 36 45 41 39 36 31 23 21 27 36 42 45 50 51 54 58 59 65 75 76 83 92 96 99 100 96 96 97 101 102 94 93 95 92 98 98 109 101 88 75 71 66 49 31 15 6
135 99 56 33 28 40 42 30 27 24 25 26 33 37 41 45 45 46 51 54 62 73 77 85 88 92 98 103 100 95 91 88 88 80 76 76 85 83 89 96 85 68 59 63 55 31 13 358 357
261 23 63 43 12 13 27 24 20 20 23 26 31 33 35 40 42 43 46 51 62 68 73 79 85 90 95 105 106 97 89 82 79 72 72 71 77 86 85 87 76 59 50 43 32 19 10 360 343
272 316 329 12 8 357 13 14 10 9 13 20 26 27 30 34 39 42 44 47 57 61 68 74 80 86 91 96 94 85 80 72 68 67 66 60 73 81 84 73 76 56 32 24 17 9 1 354 344
280 309 326 329 342 352 350 356 3 358 1 11 20 22 23 28 35 38 40 42 55 63 64 66 73 78 80 84 78 74 74 75 74 67 64 65 65 57 60 56 57 44 19 11 5 359 350 349 347
265 282 288 305 332 340 332 336 352 349 353 5 13 17 18 20 26 33 37 43 54 58 56 51 56 62 67 68 68 69 75 89 90 72 65 53 49 49 45 59 50 40 32 18 10 356 349 350 349
237 251 266 277 285 293 310 316 328 336 336 348 354 3 7 9 19 24 32 36 49 50 45 37 32 41 56 63 64 75 76 71 65 60 48 38 37 29 34 55 57 35 22 17 9 2 356 352 348
232 241 251 257 268 264 279 286 297 307 314 325 335 346 357 3 6 14 21 26 37 37 34 32 31 38 54 58 50 55 58 43 40 45 35 24 21 16 18 30 34 10 4 8 359 352 348 345 342
232 231 244 255 260 269 275 285 292 301 306 305 314 326 340 348 349 356 6 11 19 21 21 20 21 29 40 40 25 18 24 20 14 25 20 10 9 9 10 32 34 359 351 348 346 341 339 338 337
229 229 238 248 254 260 267 279 285 295 289 290 300 308 318 330 332 330 344 349 357 1 9 10 10 19 22 13 359 357 355 348 353 5 6 4 7 8 11 10 359 338 336 342 343 340 337 335 333
232 232 238 246 252 253 252 261 269 268 281 286 284 290 303 313 319 316 319 329 333 336 348 358 360 358 355 352 347 340 343 350 347 342 344 339 336 342 341 336 331 323 326 332 335 337 334 331 330
233 240 244 251 253 258 263 258 267 272 277 277 275 281 283 294 305 307 308 316 321 320 327 337 342 337 332 334 335 334 336 339 344 342 331 318 316 320 317 310 312 312 317 324 329 331 330 332 332
229 234 242 255 261 270 264 255 258 270 275 271 274 279 282 278 290 296 298 304 309 308 309 317 321 319 316 319 321 322 324 327 333 336 331 318 311 311 311 311 310 309 312 317 322 328 331 332 331
230 233 239 251 252 257 251 249 257 265 269 267 268 273 275 275 283 289 292 287 290 299 303 303 307 308 308 311 315 318 317 319 323 328 322 315 307 303 301 304 309 309 308 310 314 318 321 323 324
234 233 237 242 247 251 256 254 259 267 270 270 267 269 269 274 279 280 284 283 282 287 293 297 297 299 301 303 307 310 314 312 313 315 311 307 300 297 295 295 302 302 303 307 311 313 315 318 321
235 233 233 241 246 246 254 258 261 266 273 272 266 267 267 269 274 278 279 281 282 281 283 286 290 291 293 295 298 302 306 308 309 308 305 303 300 300 299 298 301 302 304 306 308 310 311 314 316
239 237 234 238 242 244 251 256 256 267 270 265 267 267 266 263 269 274 274 278 280 279 279 280 282 284 286 290 293 297 297 299 300 299 299 298 299 301 299 298 301 302 303 305 306 306 308 310 313
Height
5876 5875 5874 5874 5874 5874 5874 5874 5873 5872 5871 5871 5870 5869 5869 5869 5869 5871 5868 5866 5865 5864 5863 5861 5859 5859 5861 5863 5864 5864 5864 5864 5864 5864 5866 5867 5867 5868 5868 5869 5870 5871 5872 5874 5875 5877 5879 5880 5882
5878 5878 5876 5875 5877 5877 5876 5875 5874 5873 5873 5871 5870 5870 5870 5869 5869 5869 5868 5867 5866 5865 5863 5860 5859 5859 5862 5864 5865 5866 5866 5866 5865 5866 5867 5868 5869 5869 5870 5871 5872 5874 5875 5876 5877 5879 5881 5882 5883
5880 5879 5878 5879 5879 5879 5878 5877 5876 5875 5874 5872 5872 5871 5871 5870 5870 5869 5869 5868 5868 5866 5865 5863 5861 5862 5865 5866 5867 5867 5868 5868 5868 5868 5869 5870 5870 5871 5872 5873 5874 5876 5877 5878 5880 5881 5883 5884 5885
5881 5879 5881 5883 5881 5881 5880 5879 5878 5876 5875 5874 5873 5872 5871 5871 5871 5871 5870 5869 5869 5868 5867 5866 5866 5866 5868 5869 5869 5869 5870 5870 5870 5870 5871 5872 5873 5874 5874 5875 5876 5878 5879 5881 5882 5883 5885 5886 5886
5882 5881 5884 5885 5884 5883 5882 5881 5879 5878 5877 5875 5875 5874 5872 5872 5872 5871 5871 5870 5870 5870 5869 5869 5869 5870 5870 5871 5871 5871 5872 5872 5872 5872 5873 5874 5875 5876 5877 5877 5878 5880 5881 5882 5884 5885 5886 5887 5888
5884 5886 5888 5888 5887 5886 5884 5882 5881 5880 5878 5877 5876 5875 5874 5874 5873 5872 5872 5872 5871 5871 5871 5871 5871 5872 5872 5873 5873 5873 5874 5874 5875 5875 5875 5876 5877 5878 5879 5879 5880 5881 5883 5884 5885 5886 5888 5889 5890
5887 5889 5891 5891 5889 5887 5886 5884 5883 5881 5880 5879 5878 5877 5876 5875 5874 5873 5873 5873 5873 5873 5873 5873 5873 5874 5874 5875 5875 5875 5876 5876 5877 5877 5878 5878 5879 5880 5881 5881 5882 5884 5885 5886 5887 5888 5889 5890 5891
5891 5894 5894 5893 5891 5889 5888 5887 5885 5883 5882 5881 5880 5879 5878 5877 5876 5875 5874 5874 5874 5874 5875 5875 5875 5875 5876 5876 5877 5877 5878 5879 5879 5879 5880 5881 5881 5882 5883 5884 5885 5886 5887 5888 5889 5890 5891 5891 5892
5894 5897 5896 5895 5893 5892 5890 5889 5887 5886 5884 5883 5882 5881 5880 5879 5878 5877 5877 5876 5876 5876 5876 5877 5877 5878 5878 5878 5879 5879 5880 5881 5881 5881 5882 5883 5884 5884 5885 5886 5887 5888 5889 5890 5891 5891 5892 5893 5893
5899 5899 5898 5897 5895 5894 5892 5891 5889 5888 5887 5885 5884 5883 5882 5881 5880 5879 5879 5878 5878 5878 5878 5879 5880 5880 5880 5880 5881 5881 5882 5882 5883 5883 5884 5885 5886 5887 5887 5888 5889 5890 5890 5891 5892 5893 5893 5894 5894
5902 5902 5900 5899 5897 5896 5894 5893 5892 5890 5889 5888 5886 5885 5884 5883 5882 5881 5881 5880 5880 5881 5881 5881 5882 5882 5882 5883 5883 5884 5884 5884 5885 5886 5886 5887 5888 5889 5889 5890 5891 5891 5892 5893 5893 5894 5895 5895 5895
5904 5903 5902 5901 5899 5898 5896 5895 5894 5892 5892 5890 5889 5887 5886 5885 5884 5883 5883 5883 5883 5883 5883 5883 5883 5884 5884 5885 5885 5886 5886 5886 5887 5888 5888 5889 5890 5890 5891 5892 5893 5893 5894 5894 5895 5895 5895 5896 5896
5905 5905 5903 5902 5901 5900 5899 5897 5896 5894 5893 5892 5891 5890 5888 5887 5886 5886 5885 5885 5885 5885 5885 5885 5885 5886 5886 5887 5888 5888 5888 5888 5889 5889 5890 5891 5891 5892 5893 5893 5894 5894 5895 5895 5895 5896 5896 5896 5897
5906 5905 5905 5904 5902 5902 5901 5899 5898 5897 5895 5894 5893 5892 5891 5890 5889 5888 5887 5887 5887 5886 5886 5887 5887 5887 5888 5889 5889 5890 5890 5890 5891 5891 5891 5892 5892 5893 5893 5894 5895 5895 5895 5896 5896 5897 5897 5897 5897
5904 5905 5905 5906 5905 5903 5903 5902 5900 5899 5897 5896 5895 5894 5892 5892 5891 5890 5889 5888 5888 5888 5888 5888 5889 5889 5890 5890 5891 5891 5892 5892 5892 5893 5893 5893 5894 5894 5895 5895 5896 5896 5896 5896 5897 5897 5897 5897 5897
5905 5906 5906 5906 5906 5906 5906 5904 5902 5900 5900 5898 5897 5896 5894 5893 5892 5892 5891 5890 5890 5890 5890 5890 5891 5891 5891 5892 5893 5893 5893 5893 5894 5894 5894 5894 5894 5895 5896 5896 5896 5897 5897 5897 5897 5898 5898 5897 5897
5905 5906 5906 5907 5907 5907 5907 5905 5904 5902 5901 5900 5899 5898 5896 5895 5894 5894 5893 5892 5892 5892 5892 5892 5892 5892 5893 5893 5894 5894 5894 5895 5895 5895 5895 5895 5895 5896 5896 5897 5897 5897 5898 5898 5898 5898 5898 5898 5897
5906 5906 5907 5908 5907 5908 5907 5906 5905 5904 5903 5902 5901 5899 5898 5897 5896 5896 5895 5894 5894 5894 5894 5894 5894 5894 5894 5895 5895 5896 5896 5896 5896 5896 5896 5896 5896 5896 5896 5897 5897 5898 5898 5898 5898 5898 5898 5898 5897
5907 5907 5909 5910 5908 5909 5908 5907 5906 5905 5904 5903 5902 5901 5900 5899 5898 5897 5897 5896 5896 5896 5895 5895 5895 5896 5896 5896 5897 5897 5897 5897 5897 5897 5897 5897 5897 5897 5897 5897 5898 5898 5898 5898 5898 5898 5898 5898 5897
5908 5909 5909 5909 5910 5909 5908 5907 5907 5907 5905 5904 5903 5903 5902 5900 5899 5899 5898 5898 5897 5897 5897 5897 5897 5897 5897 5897 5897 5898 5898 5898 5898 5898 5897 5897 5897 5897 5897 5897 5898 5898 5898 5898 5898 5898 5898 5897 5897
5907 5909 5909 5909 5909 5909 5908 5907 5907 5906 5906 5905 5904 5903 5902 5902 5901 5900 5900 5899 5899 5899 5899 5898 5898 5898 5898 5898 5898 5899 5899 5899 5899 5899 5898 5898 5898 5897 5898 5898 5898 5898 5899 5898 5898 5898 5897 5897 5896
5905 5907 5908 5908 5908 5907 5907 5907 5906 5906 5906 5905 5905 5904 5903 5903 5902 5901 5901 5901 5900 5900 5900 5899 5899 5899 5899 5899 5900 5900 5900 5900 5899 5899 5898 5898 5898 5898 5898 5898 5898 5898 5898 5898 5898 5897 5897 5896 5895
5902 5904 5905 5905 5906 5906 5906 5906 5906 5905 5905 5905 5904 5904 5903 5903 5902 5902 5902 5902 5901 5901 5901 5900 5900 5900 5900 5900 5900 5900 5900 5900 5900 5899 5899 5898 5898 5898 5898 5898 5898 5898 5898 5898 5897 5897 5896 5896 5895
5899 5901 5902 5903 5903 5904 5904 5905 5905 5904 5904 5904 5904 5904 5903 5902 5902 5902 5902 5902 5902 5902 5901 5901 5901 5901 5901 5901 5901 5901 5900 5900 5900 5899 5899 5899 5899 5898 5898 5898 5898 5898 5897 5897 5896 5895 5895 5894 5893
5897 5899 5900 5900 5901 5901 5902 5903 5903 5903 5903 5903 5903 5902 5902 5902 5902 5901 5901 5901 5901 5901 5902 5902 5901 5901 5901 5901 5901 5901 5900 5900 5900 5899 5899 5898 5898 5898 5897 5897 5897 5897 5896 5896 5895 5894 5893 5893 5891
5893 5896 5898 5899 5899 5900 5901 5901 5901 5901 5901 5901 5901 5901 5901 5900 5900 5900 5900 5901 5901 5901 5901 5901 5901 5901 5901 5901 5901 5900 5900 5900 5899 5898 5898 5897 5897 5897 5897 5896 5896 5896 5895 5895 5894 5893 5892 5891 5890
5889 5891 5895 5897 5897 5897 5898 5900 5899 5899 5899 5899 5899 5899 5898 5898 5899 5899 5899 5899 5900 5900 5900 5900 5900 5900 5900 5900 5900 5900 5899 5899 5898 5897 5897 5896 5896 5896 5896 5895 5894 5894 5893 5893 5892 5891 5890 5889 5888
5885 5888 5891 5892 5893 5893 5895 5896 5897 5894 5896 5896 5896 5896 5896 5896 5897 5897 5897 5897 5898 5898 5899 5899 5899 5899 5899 5899 5899 5899 5898 5898 5897 5896 5896 5895 5895 5894 5894 5894 5893 5893 5892 5891 5890 5889 5888 5886 5885
5881 5883 5885 5888 5889 5890 5891 5894 5893 5892 5892 5893 5893 5893 5893 5894 5894 5894 5895 5895 5896 5896 5896 5897 5897 5897 5897 5897 5897 5897 5896 5896 5896 5895 5894 5893 5893 5892 5892 5892 5891 5890 5889 5888 5887 5886 5885 5883 5882
5876 5878 5881 5884 5884 5885 5886 5890 5889 5888 5888 5888 5889 5890 5891 5891 5892 5892 5892 5893 5893 5894 5894 5894 5894 5894 5895 5895 5895 5894 5894 5894 5893 5893 5892 5892 5891 5890 5890 5889 5888 5888 5887 5886 5884 5883 5881 5880 5878